When you browse on this site, cookies collect data to enhance your experience and personalize the content and advertising you see.
Visit our Privacy Policy to learn more. By continuing to use the site, you agree to this use of cookies and data.
  • In Czech Republic
  • List of Countries
  • For 7 days
  • Water Temperature
  • Weather Map
  • Weather Widgets
  • user-avatar
    Login

    Hourly Weather Kipungo

    Today, 24 September, Tuesday

    Time Temperature Precipitation Wind Pressure Humidity
    00:00 +17°C° 0 mm 2 mps 653 mmHg 78%
    01:00 +17°C° 0 mm 2 mps 653 mmHg 85%
    02:00 +17°C° 0 mm 2 mps 653 mmHg 85%
    03:00 +16°C° 0 mm 1 mps 652 mmHg 85%
    04:00 +16°C° 0 mm 1 mps 652 mmHg 85%
    05:00 +18°C° 0 mm 1 mps 653 mmHg 78%
    06:00 +18°C° 0 mm 0 mps 654 mmHg 72%
    07:00 +19°C° 0 mm 0 mps 654 mmHg 65%
    08:00 +25°C° 0 mm 2 mps 655 mmHg 49%
    09:00 +29°C° 0 mm 3 mps 656 mmHg 34%
    10:00 +34°C° 0 mm 4 mps 657 mmHg 18%
    11:00 +36°C° 0 mm 4 mps 656 mmHg 15%
    12:00 +37°C° 0 mm 4 mps 655 mmHg 12%
    13:00 +40°C° 0 mm 5 mps 655 mmHg 9%
    14:00 +40°C° 0 mm 4 mps 654 mmHg 9%
    15:00 +38°C° 0 mm 4 mps 654 mmHg 10%
    16:00 +38°C° 0 mm 3 mps 653 mmHg 11%
    17:00 +35°C° 0 mm 3 mps 653 mmHg 14%
    18:00 +30°C° 0 mm 2 mps 653 mmHg 17%
    19:00 +27°C° 0 mm 1 mps 653 mmHg 21%
    20:00 +25°C° 0 mm 2 mps 653 mmHg 32%
    21:00 +23°C° 0 mm 2 mps 653 mmHg 43%
    22:00 +20°C° 0 mm 2 mps 653 mmHg 54%
    23:00 +19°C° 0 mm 2 mps 653 mmHg 63%

    Tomorrow, 25 September, Wednesday

    Time Temperature Precipitation Wind Pressure Humidity
    00:00 +17°C° 0 mm 2 mps 653 mmHg 72%
    01:00 +16°C° 0 mm 1 mps 652 mmHg 81%
    02:00 +16°C° 0 mm 1 mps 652 mmHg 81%
    03:00 +15°C° 0 mm 1 mps 652 mmHg 82%
    04:00 +15°C° 0 mm 1 mps 652 mmHg 82%
    05:00 +16°C° 0 mm 1 mps 653 mmHg 75%
    06:00 +16°C° 0 mm 0 mps 654 mmHg 69%
    07:00 +18°C° 0 mm 0 mps 654 mmHg 62%
    08:00 +24°C° 0 mm 2 mps 655 mmHg 46%
    09:00 +28°C° 0 mm 3 mps 656 mmHg 31%
    10:00 +34°C° 0 mm 5 mps 656 mmHg 15%
    11:00 +36°C° 0 mm 5 mps 656 mmHg 12%
    12:00 +38°C° 0 mm 4 mps 655 mmHg 9%
    13:00 +41°C° 0 mm 4 mps 655 mmHg 7%
    14:00 +41°C° 0 mm 4 mps 654 mmHg 6%
    15:00 +40°C° 0 mm 4 mps 654 mmHg 6%
    16:00 +40°C° 0 mm 4 mps 654 mmHg 6%
    17:00 +36°C° 0 mm 3 mps 653 mmHg 8%
    18:00 +33°C° 0 mm 3 mps 653 mmHg 9%
    19:00 +28°C° 0 mm 2 mps 653 mmHg 11%
    20:00 +26°C° 0 mm 2 mps 653 mmHg 24%
    21:00 +23°C° 0 mm 2 mps 653 mmHg 37%
    22:00 +20°C° 0 mm 2 mps 653 mmHg 50%
    23:00 +18°C° 0 mm 2 mps 652 mmHg 57%

    Day after tomorrow, 26 September, Thursday

    Time Temperature Precipitation Wind Pressure Humidity
    00:00 +17°C° 0 mm 2 mps 652 mmHg 64%
    01:00 +16°C° 0 mm 1 mps 651 mmHg 72%
    02:00 +16°C° 0 mm 1 mps 651 mmHg 66%
    03:00 +16°C° 0 mm 1 mps 651 mmHg 59%
    04:00 +16°C° 0 mm 1 mps 651 mmHg 53%
    05:00 +18°C° 0 mm 1 mps 652 mmHg 45%
    06:00 +18°C° 0 mm 2 mps 653 mmHg 37%
    07:00 +20°C° 0 mm 2 mps 654 mmHg 29%
    08:00 +24°C° 0 mm 3 mps 655 mmHg 26%
    09:00 +28°C° 0 mm 4 mps 655 mmHg 23%
    10:00 +33°C° 0 mm 5 mps 656 mmHg 20%
    11:00 +34°C° 0 mm 5 mps 656 mmHg 18%
    12:00 +36°C° 0 mm 4 mps 655 mmHg 16%
    13:00 +38°C° 0 mm 4 mps 654 mmHg 13%
    14:00 +38°C° 0 mm 4 mps 654 mmHg 13%
    15:00 +37°C° 0 mm 3 mps 654 mmHg 14%
    16:00 +37°C° 0 mm 3 mps 653 mmHg 14%
    17:00 +34°C° 0 mm 3 mps 653 mmHg 17%
    18:00 +30°C° 0 mm 2 mps 653 mmHg 21%
    19:00 +27°C° 0 mm 2 mps 653 mmHg 24%
    20:00 +25°C° 0 mm 2 mps 654 mmHg 30%
    21:00 +24°C° 0 mm 1 mps 654 mmHg 36%
    22:00 +22°C° 0 mm 1 mps 654 mmHg 42%
    23:00 +22°C° 0 mm 1 mps 654 mmHg 47%

    27 September, Friday

    Time Temperature Precipitation Wind Pressure Humidity
    00:00 +21°C° 0 mm 1 mps 654 mmHg 52%
    01:00 +20°C° 0 mm 1 mps 653 mmHg 57%
    02:00 +20°C° 0 mm 1 mps 654 mmHg 57%
    03:00 +19°C° 0 mm 1 mps 654 mmHg 57%
    04:00 +17°C° 0 mm 0 mps 654 mmHg 57%
    05:00 +20°C° 0 mm 1 mps 654 mmHg 53%
    06:00 +20°C° 0 mm 2 mps 655 mmHg 48%
    07:00 +21°C° 0 mm 2 mps 656 mmHg 44%
    08:00 +25°C° 0 mm 3 mps 656 mmHg 35%
    09:00 +28°C° 0 mm 3 mps 656 mmHg 27%
    10:00 +32°C° 0 mm 4 mps 657 mmHg 19%
    11:00 +34°C° 0 mm 3 mps 656 mmHg 17%
    12:00 +36°C° 0 mm 3 mps 656 mmHg 14%
    13:00 +38°C° 0 mm 2 mps 656 mmHg 12%
    14:00 +37°C° 0 mm 2 mps 655 mmHg 12%
    15:00 +37°C° 0 mm 2 mps 655 mmHg 12%
    16:00 +36°C° 0 mm 2 mps 654 mmHg 12%
    17:00 +32°C° 0 mm 2 mps 654 mmHg 16%
    18:00 +30°C° 0 mm 2 mps 654 mmHg 20%
    19:00 +27°C° 0 mm 2 mps 654 mmHg 24%
    20:00 +25°C° 0 mm 2 mps 654 mmHg 40%
    21:00 +21°C° 0 mm 2 mps 654 mmHg 56%
    22:00 +19°C° 0 mm 2 mps 654 mmHg 73%
    23:00 +18°C° 0 mm 2 mps 653 mmHg 79%

    28 September, Saturday

    Time Temperature Precipitation Wind Pressure Humidity
    00:00 +17°C° 0 mm 2 mps 653 mmHg 85%
    01:00 +15°C° 0 mm 2 mps 653 mmHg 91%
    02:00 +15°C° 0 mm 1 mps 652 mmHg 90%
    03:00 +14°C° 0 mm 1 mps 652 mmHg 88%
    04:00 +14°C° 0 mm 1 mps 652 mmHg 87%
    05:00 +15°C° 0 mm 1 mps 653 mmHg 78%
    06:00 +16°C° 0 mm 1 mps 653 mmHg 69%
    07:00 +18°C° 0 mm 1 mps 654 mmHg 61%
    08:00 +21°C° 0 mm 2 mps 655 mmHg 45%
    09:00 +26°C° 0 mm 2 mps 655 mmHg 29%
    10:00 +31°C° 0 mm 3 mps 656 mmHg 13%
    11:00 +34°C° 0 mm 2 mps 655 mmHg 11%
    12:00 +37°C° 0 mm 2 mps 655 mmHg 8%
    13:00 +39°C° 0 mm 1 mps 655 mmHg 6%
    14:00 +37°C° 0 mm 1 mps 654 mmHg 6%
    15:00 +37°C° 0 mm 1 mps 654 mmHg 6%
    16:00 +36°C° 0 mm 1 mps 653 mmHg 5%
    17:00 +32°C° 0 mm 2 mps 653 mmHg 7%
    18:00 +29°C° 0 mm 2 mps 652 mmHg 9%
    19:00 +25°C° 0 mm 2 mps 652 mmHg 11%
    20:00 +23°C° 0 mm 2 mps 652 mmHg 30%
    21:00 +19°C° 0 mm 2 mps 652 mmHg 49%
    22:00 +17°C° 0 mm 2 mps 652 mmHg 68%
    23:00 +16°C° 0 mm 2 mps 652 mmHg 75%

    29 September, Sunday

    Time Temperature Precipitation Wind Pressure Humidity
    00:00 +15°C° 0 mm 2 mps 652 mmHg 82%
    01:00 +14°C° 0 mm 2 mps 652 mmHg 89%
    02:00 +14°C° 0 mm 1 mps 651 mmHg 86%
    03:00 +13°C° 0 mm 1 mps 651 mmHg 82%
    04:00 +13°C° 0 mm 1 mps 651 mmHg 79%
    05:00 +14°C° 0 mm 1 mps 652 mmHg 70%
    06:00 +16°C° 0 mm 1 mps 653 mmHg 61%
    07:00 +18°C° 0 mm 1 mps 654 mmHg 52%
    08:00 +23°C° 0 mm 1 mps 654 mmHg 38%
    09:00 +27°C° 0 mm 2 mps 655 mmHg 24%
    10:00 +33°C° 0 mm 3 mps 656 mmHg 10%
    11:00 +35°C° 0 mm 2 mps 655 mmHg 8%
    12:00 +37°C° 0 mm 2 mps 655 mmHg 7%
    13:00 +38°C° 0 mm 2 mps 654 mmHg 5%
    14:00 +38°C° 0 mm 2 mps 654 mmHg 5%
    15:00 +37°C° 0 mm 1 mps 653 mmHg 5%
    16:00 +37°C° 0 mm 1 mps 653 mmHg 5%
    17:00 +33°C° 0 mm 1 mps 652 mmHg 9%
    18:00 +29°C° 0 mm 2 mps 652 mmHg 13%
    19:00 +25°C° 0 mm 2 mps 652 mmHg 17%
    20:00 +23°C° 0 mm 2 mps 652 mmHg 33%
    21:00 +20°C° 0 mm 3 mps 652 mmHg 49%
    22:00 +18°C° 0 mm 3 mps 652 mmHg 65%
    23:00 +17°C° 0 mm 2 mps 652 mmHg 71%
    Show more